DW6536 Weather Reports


time (UTC)temp
F
wind
direction
speed
knots
gust
knots
rain 1hr
in
rain 24hr
in
rain mn
in
humidity
%
barometer
mb
20260508074530 60 35 0.0 0.0 0.00 0.00 0.00 82 1012.7
20260508073028 60 358 0.0 0.0 0.00 0.00 0.00 82 1012.7
20260508071537 59 358 0.0 0.0 0.00 0.00 0.00 83 1012.7
20260508070022 59 326 0.0 0.0 0.00 0.00 0.00 83 1013.2
20260508064521 59 326 0.0 0.0 0.00 0.00 0.00 84 1013.2
20260508063031 59 326 0.0 0.0 0.00 0.00 0.00 85 1013.7
20260508061519 59 326 0.0 0.0 0.00 0.00 0.00 84 1014.1
20260508060017 59 326 0.0 0.0 0.00 0.00 0.00 83 1013.6
20260508054517 59 326 0.0 0.0 0.00 0.00 0.00 83 1013.6
20260508053016 59 326 0.0 0.0 0.00 0.00 0.00 83 1013.9
20260508051513 59 326 0.0 0.0 0.00 0.00 0.00 83 1013.6
20260508050011 59 327 0.0 0.0 0.00 0.00 0.00 83 1013.5
20260508044511 59 327 0.0 0.0 0.00 0.00 0.00 83 1014.4
20260508043012 59 76 0.0 0.0 0.00 0.00 0.00 83 1013.5
20260508041512 59 99 0.0 0.0 0.00 0.00 0.00 83 1013.6
20260508040010 59 62 0.0 0.0 0.00 0.00 0.00 81 1014.0
20260508034510 60 62 0.0 0.0 0.00 0.00 0.00 81 1014.5
20260508033009 60 62 0.0 0.0 0.00 0.00 0.00 80 1014.4
20260508031509 60 62 0.0 0.0 0.00 0.00 0.00 80 1014.9
20260508030008 60 62 0.0 0.0 0.00 0.00 0.00 78 1014.0
20260508024507 61 37 0.0 0.0 0.00 0.00 0.00 77 1013.6
20260508023008 61 64 0.0 0.0 0.00 0.00 0.00 77 1013.2
20260508021507 61 64 0.0 0.0 0.00 0.00 0.00 76 1012.3
20260508020006 62 99 0.0 0.0 0.00 0.00 0.00 75 1012.6
20260508014508 62 44 0.9 0.0 0.00 0.00 0.00 75 1012.6
20260508013004 62 132 0.0 0.0 0.00 0.00 0.00 74 1012.5
20260508011504 63 88 0.9 0.0 0.00 0.00 0.00 72 1012.3
20260508010002 63 56 0.9 0.0 0.00 0.00 0.00 71 1012.9
20260508004500 63 30 0.9 0.0 0.00 0.00 0.00 70 1013.2
20260508003107 64 116 0.9 0.0 0.00 0.00 0.00 69 1013.0
20260508001604 64 102 0.9 0.0 0.00 0.00 0.00 69 1013.6
20260508000059 65 50 0.9 0.0 0.00 0.00 0.00 68 1014.0
20260507234559 65 19 0.0 0.0 0.00 0.00 0.00 68 1014.2
20260507233100 65 52 0.9 0.0 0.00 0.00 0.00 66 1014.1
20260507231559 66 51 0.0 0.0 0.00 0.00 0.00 69 1014.0
20260507230104 66 36 0.9 0.0 0.00 0.00 0.00 67 1014.1
20260507224600 65 358 0.9 0.0 0.00 0.00 0.00 68 1014.0
20260507223057 65 45 0.9 0.0 0.00 0.00 0.00 67 1014.3
20260507221555 65 48 0.9 0.0 0.00 0.00 0.00 67 1014.3
20260507220055 65 7 1.7 0.0 0.00 0.00 0.00 68 1014.6
20260507214605 65 41 1.7 0.0 0.00 0.00 0.00 69 1014.8
20260507213056 66 1 1.7 0.0 0.00 0.00 0.00 67 1014.9
20260507211553 65 14 0.9 0.0 0.00 0.00 0.00 71 1014.6
20260507210057 64 23 0.9 0.0 0.00 0.00 0.00 70 1014.8
20260507204548 64 44 0.9 0.0 0.00 0.00 0.00 71 1015.0
20260507203103 64 39 0.9 0.0 0.00 0.00 0.00 69 1015.2
20260507201556 64 31 1.7 0.0 0.00 0.00 0.00 70 1015.7
20260507194543 63 49 0.9 0.0 0.00 0.00 0.00 71 1016.0
20260507193047 63 36 1.7 0.0 0.00 0.00 0.00 71 1016.1
20260507191541 63 88 1.7 0.0 0.00 0.00 0.00 72 1016.1
20260507190041 62 52 1.7 0.0 0.00 0.00 0.00 71 1016.2
20260507184546 62 74 1.7 0.0 0.00 0.00 0.00 73 1015.7
20260507183041 62 64 1.7 0.0 0.00 0.00 0.00 72 1016.2
20260507181538 62 62 1.7 0.0 0.00 0.00 0.00 72 1016.2
20260507180040 63 85 1.7 0.0 0.00 0.00 0.00 73 1016.3
20260507174539 63 29 1.7 0.0 0.00 0.00 0.00 73 1016.6
20260507173134 61 14 2.6 0.0 0.00 0.00 0.00 78 1016.9
20260507171551 59 15 0.9 0.0 0.00 0.00 0.00 80 1016.5
20260507170059 59 52 1.7 0.0 0.00 0.00 0.00 80 1015.9
20260507164559 58 338 1.7 0.0 0.00 0.00 0.00 82 1017.1
20260507163049 58 45 1.7 0.0 0.00 0.00 0.00 82 1017.0
20260507161548 58 26 0.9 0.0 0.00 0.00 0.00 79 1018.2
20260507160046 58 34 1.7 0.0 0.00 0.00 0.00 80 1017.6
20260507154551 58 49 1.7 0.0 0.00 0.00 0.00 81 1017.5
20260507153045 58 358 1.7 0.0 0.00 0.00 0.00 82 1017.6
20260507151545 58 49 0.9 0.0 0.00 0.00 0.00 82 1017.3
20260507150043 58 49 1.7 0.0 0.00 0.00 0.00 83 1017.5
20260507144543 58 4 1.7 0.0 0.00 0.00 0.00 83 1017.8
20260507143040 57 16 1.7 0.0 0.00 0.00 0.00 85 1017.0
20260507141542 57 358 1.7 0.0 0.00 0.00 0.00 86 1017.0
20260507140038 57 349 2.6 0.0 0.00 0.00 0.00 86 1017.0
20260507134539 57 23 0.9 0.0 0.00 0.00 0.00 87 1016.6
20260507133052 57 13 2.6 0.0 0.00 0.00 0.00 87 1016.5
20260507131545 56 343 2.6 0.0 0.00 0.00 0.00 87 1016.5
20260507130045 56 12 2.6 0.0 0.00 0.00 0.00 87 1016.6
20260507124533 57 18 2.6 0.0 0.00 0.00 0.00 87 1016.3
20260507123032 57 343 1.7 0.0 0.00 0.00 0.00 87 1016.5
20260507121531 57 294 2.6 0.0 0.00 0.00 0.00 87 1016.4
20260507120028 57 29 1.7 0.0 0.00 0.00 0.00 87 1015.5
20260507114526 57 6 1.7 0.0 0.00 0.00 0.00 87 1015.2
20260507113025 57 47 1.7 0.0 0.00 0.00 0.00 86 1015.4
20260507111525 57 31 2.6 0.0 0.00 0.00 0.00 86 1015.6
20260507110024 57 353 1.7 0.0 0.00 0.00 0.00 86 1015.4
20260507104522 57 33 2.6 0.0 0.00 0.00 0.00 85 1015.4
20260507103021 57 356 2.6 0.0 0.00 0.00 0.00 86 1015.2
20260507101521 57 24 2.6 0.0 0.00 0.00 0.00 86 1015.0
20260507100019 58 54 1.7 0.0 0.00 0.00 0.00 85 1014.9
20260507094518 58 69 1.7 0.0 0.00 0.00 0.00 85 1015.2
20260507093016 58 37 1.7 0.0 0.00 0.00 0.00 85 1014.7
20260507091520 58 17 0.9 0.0 0.00 0.00 0.00 85 1014.8
20260507090021 58 12 0.9 0.0 0.00 0.00 0.00 85 1014.1
20260507084512 58 58 0.9 0.0 0.00 0.00 0.00 84 1014.0
20260507083011 58 35 0.9 0.0 0.00 0.00 0.00 84 1013.8
20260507081508 58 40 0.9 0.0 0.00 0.00 0.00 84 1014.3
20260507080006 59 37 0.9 0.0 0.00 0.00 0.00 83 1013.8